sat.trackr.live / text

‹ back to catalog

STARLINK-32397

NORAD 61593 · 2024-187V

PAYLOAD ACTIVE UNKNOWN

§ Identity

Operator
Country
US
Launch date
2024-10-18
Launch site
AFETR
Launch vehicle
Mass (kg)
RCS (m²)

Purposes: comms

External: N2YO · Heavens-Above · Gunter

§ Orbital elements

Epoch: 2026-09-21T21:27:29.909088Z

Period
93.85 min
Inclination
53.1596°
Eccentricity
0.0001333
Mean motion
15.34385575 rev/d
Perigee alt
461.8 km
Apogee alt
463.7 km
Semi-major
6,840.9 km
B*
5.2187e-6
RAAN
227.2751°
Arg perigee
86.1792°
Mean anomaly
273.9364°
Rev number
10,921

§ Raw data

STARLINK-323971 61593U 24187V   26264.89409617 -.00000200  00000+0  52187-5 0  99902 61593  53.1596 227.2751 0001333  86.1792 273.9364 15.34385575109217

JSON: /api/v1/satellites/61593 · /tle

For live sub-satellite position, see the globe view (requires WebGL).

§ Visibility from observer

Set your observer location to see the next 7 days of passes ≥ 10°. The values pass through the URL so the page stays shareable.

No JS? Fill the form by hand. The geolocation button needs JavaScript.